Location: Unspecified
(42.7170°S, 0.0000°E)
Time: 23:50:02
(UTC+00:00)

N. Korean satellite - Pass Details

Date: 28 May 2019
Orbit: 455 x 510 km, 97.2° (Epoch: 17 June)

Event Time Altitude Azimuth Distance (km) Brightness Sun altitude
Rises 05:13:10 0° 14° (NNE) 2,478 10.5 -22.2°
Reaches altitude 10° 05:15:11 10° 14° (NNE) 1,617 9.5 -21.9°
Maximum altitude 05:18:39 87° 98° (E) 480 6.4 -21.2°
Enters shadow 05:18:54 76° 181° (S) 494 6.4 -21.2°
